M0JGD Weather Reports


Display with metric or nautical units.
time (UTC)temp
F
wind
direction
speed
MPH
gust
MPH
rain 1hr
in
rain 24hr
in
rain mn
in
humidity
%
barometer
mb
20260510101554 50 74 1.0 3.0 0.02 0.03 0.03 84 1014.0
20260510094555 50 79 1.0 3.0 0.03 0.03 0.03 84 1014.1
20260510093102 50 77 1.0 4.0 0.01 0.01 0.01 82 1014.0
20260510091556 50 102 0.0 3.0 0.01 0.01 0.01 81 1014.2
20260510090055 51 0 0.0 3.0 0.00 0.00 0.00 79 1014.3
20260510084553 51 71 1.0 4.0 0.00 0.00 0.00 77 1014.2
20260510083100 51 93 1.0 4.0 0.00 0.00 0.00 77 1014.4
20260510081556 51 0 0.0 4.0 0.00 0.00 0.00 77 1014.3
20260510080058 51 0 1.0 3.0 0.00 0.00 0.00 77 1014.3
20260510074624 50 0 0.0 4.0 0.00 0.00 0.00 78 1014.2
20260510073105 50 69 0.0 4.0 0.00 0.00 0.00 78 1014.0
20260510071553 50 90 1.0 4.0 0.00 0.00 0.00 78 1014.1
20260510070056 50 107 1.0 3.0 0.00 0.00 0.00 79 1014.2
20260510064557 49 96 1.0 4.0 0.00 0.00 0.00 80 1014.3
20260510063053 49 86 1.0 3.0 0.00 0.00 0.00 81 1014.4
20260510061557 49 0 0.0 0.0 0.00 0.00 0.00 82 1014.4
20260510060057 49 0 0.0 0.0 0.00 0.00 0.00 82 1014.4
20260510054555 48 0 0.0 0.0 0.00 0.00 0.00 82 1014.3
20260510053055 48 0 0.0 2.0 0.00 0.00 0.00 82 1014.2
20260510051557 48 0 0.0 2.0 0.00 0.00 0.00 82 1014.2
20260510050056 48 94 1.0 2.0 0.00 0.00 0.00 82 1014.2
20260510044554 48 71 0.0 3.0 0.00 0.00 0.00 81 1014.2
20260510043052 49 74 0.0 3.0 0.00 0.00 0.00 81 1014.1
20260510041553 49 0 0.0 3.0 0.00 0.00 0.00 80 1014.2
20260510040058 49 110 1.0 2.0 0.00 0.00 0.00 80 1014.2
20260510034553 50 0 0.0 2.0 0.00 0.00 0.00 79 1014.3
20260510033119 50 0 0.0 0.0 0.00 0.00 0.00 79 1014.3
20260510031554 50 0 0.0 0.0 0.00 0.00 0.00 78 1014.4
20260510030055 50 0 0.0 0.0 0.00 0.00 0.00 78 1014.5
20260510024555 51 0 0.0 3.0 0.00 0.00 0.00 78 1014.4
20260510023056 51 0 0.0 2.0 0.00 0.00 0.00 77 1014.4
20260510021555 51 0 0.0 3.0 0.00 0.00 0.00 76 1014.5
20260510020056 51 0 0.0 0.0 0.00 0.00 0.00 76 1014.5
20260510014556 51 0 1.0 2.0 0.00 0.00 0.00 75 1014.4
20260510013054 52 0 0.0 1.0 0.00 0.00 0.00 73 1014.5
20260510011552 52 101 0.0 2.0 0.00 0.00 0.00 71 1014.5
20260510010055 52 0 0.0 2.0 0.00 0.00 0.00 70 1014.5
20260510004554 52 0 0.0 0.0 0.00 0.00 0.00 69 1014.5
20260510003105 53 0 0.0 0.0 0.00 0.00 0.00 65 1014.3
20260510001551 53 0 0.0 2.0 0.00 0.00 0.00 63 1014.5
20260510000054 53 118 1.0 3.0 0.00 0.00 0.00 61 1014.6
20260509234611 53 99 1.0 3.0 0.00 0.00 0.00 60 1014.5
20260509233053 53 137 1.0 3.0 0.00 0.00 0.00 58 1014.6
20260509231602 53 109 0.0 2.0 0.00 0.00 0.00 57 1014.6
20260509230059 53 94 1.0 2.0 0.00 0.00 0.00 56 1014.6
20260509224601 53 0 0.0 2.0 0.00 0.00 0.00 55 1014.7
20260509223102 53 0 0.0 0.0 0.00 0.00 0.00 54 1014.6
20260509221555 53 113 1.0 2.0 0.00 0.00 0.00 54 1014.7
20260509220058 53 106 0.0 2.0 0.00 0.00 0.00 54 1014.8
20260509214557 53 0 0.0 0.0 0.00 0.00 0.00 54 1014.7
20260509213058 53 0 0.0 0.0 0.00 0.00 0.00 55 1014.7
20260509211555 53 0 0.0 0.0 0.00 0.00 0.00 55 1014.8
20260509210059 54 0 0.0 0.0 0.00 0.00 0.00 56 1014.6
20260509204606 54 0 0.0 0.0 0.00 0.00 0.00 57 1014.5
20260509203110 55 0 0.0 0.0 0.00 0.00 0.00 57 1014.3
20260509201554 56 0 0.0 2.0 0.00 0.00 0.00 57 1014.1
20260509200055 57 107 0.0 2.0 0.00 0.00 0.00 55 1014.0
20260509194557 58 105 1.0 3.0 0.00 0.00 0.00 53 1013.9
20260509193055 59 107 0.0 0.0 0.00 0.00 0.00 51 1013.9
20260509191555 60 107 1.0 3.0 0.00 0.00 0.00 50 1013.9
20260509190056 61 107 1.0 4.0 0.00 0.00 0.00 48 1013.6
20260509184559 62 98 2.0 4.0 0.00 0.00 0.00 47 1013.4
20260509183104 63 116 0.0 3.0 0.00 0.00 0.00 49 1013.6
20260509181609 64 101 1.0 4.0 0.00 0.00 0.00 48 1013.4
20260509180117 65 110 1.0 4.0 0.00 0.00 0.00 48 1013.4
20260509174615 66 96 1.0 4.0 0.00 0.00 0.00 47 1013.4
20260509173108 67 107 2.0 6.0 0.00 0.00 0.00 45 1013.3
20260509171600 69 92 2.0 6.0 0.00 0.00 0.00 44 1012.9
20260509170054 69 111 1.0 6.0 0.00 0.00 0.00 44 1013.0
20260509164557 70 98 2.0 4.0 0.00 0.00 0.00 43 1013.0
20260509163110 70 111 2.0 6.0 0.00 0.00 0.00 43 1013.0
20260509161606 72 115 1.0 6.0 0.00 0.00 0.00 41 1013.0
20260509160056 71 123 1.0 4.0 0.00 0.00 0.00 43 1012.9
20260509154604 71 0 1.0 4.0 0.00 0.00 0.00 41 1012.9
20260509153109 72 116 1.0 3.0 0.00 0.00 0.00 40 1013.1
20260509151604 71 119 1.0 4.0 0.00 0.00 0.00 41 1013.2
20260509150055 71 130 1.0 4.0 0.00 0.00 0.00 43 1013.3
20260509144555 71 111 3.0 6.0 0.00 0.00 0.00 40 1013.4
20260509143106 72 109 1.0 4.0 0.00 0.00 0.00 40 1013.4
20260509141555 73 117 2.0 6.0 0.00 0.00 0.00 38 1013.4
20260509140057 73 0 1.0 4.0 0.00 0.00 0.00 41 1013.2
20260509134556 72 107 1.0 4.0 0.00 0.00 0.00 42 1013.2
20260509133106 74 90 1.0 3.0 0.00 0.00 0.00 38 1013.2
20260509131553 72 104 0.0 4.0 0.00 0.00 0.00 40 1013.4
20260509130105 73 0 0.0 4.0 0.00 0.00 0.00 41 1013.6
20260509124610 74 92 2.0 6.0 0.00 0.00 0.00 41 1013.7
20260509123100 71 113 1.0 4.0 0.00 0.00 0.00 46 1013.8
20260509121558 72 105 1.0 4.0 0.00 0.00 0.00 43 1013.9
20260509120059 71 108 0.0 4.0 0.00 0.00 0.00 44 1014.1
20260509114558 72 92 2.0 5.0 0.00 0.00 0.00 43 1014.4
20260509113101 71 0 1.0 4.0 0.00 0.00 0.00 45 1014.5
20260509111603 70 88 1.0 6.0 0.00 0.00 0.00 47 1014.5
20260509110056 70 0 1.0 4.0 0.00 0.00 0.00 48 1014.7
20260509104610 70 0 1.0 4.0 0.00 0.00 0.00 46 1014.8
20260509103111 70 90 1.0 4.0 0.00 0.00 0.00 46 1014.9